Time,TemperatureF,DewpointF,PressureIn,WindDirection,WindDirectionDegrees,WindSpeedMPH,WindSpeedGustMPH,Humidity,HourlyPrecipIn,Conditions,Clouds,dailyrainin,SoftwareType,DateUTC
2013-02-10 00:02:00,79.0,-99.9,30.02,East,80,11.0,16.0,-999,-99.99,,,-99.99,,2013-02-10 04:02:00,
2013-02-10 00:11:00,79.0,-99.9,30.02,East,80,11.0,16.0,-999,-99.99,,,-99.99,,2013-02-10 04:11:00,
2013-02-10 00:22:00,79.0,-99.9,30.02,East,80,11.0,16.0,-999,-99.99,,,-99.99,,2013-02-10 04:22:00,
2013-02-10 00:30:00,78.0,-99.9,30.01,East,90,13.0,16.0,-999,-99.99,,,-99.99,,2013-02-10 04:30:00,
2013-02-10 00:32:00,78.0,-99.9,30.02,East,80,11.0,13.0,-999,-99.99,,,-99.99,,2013-02-10 04:32:00,
2013-02-10 00:42:00,78.0,-99.9,30.02,East,80,11.0,13.0,-999,-99.99,,,-99.99,,2013-02-10 04:42:00,
2013-02-10 00:52:00,78.0,-99.9,30.02,East,80,11.0,13.0,-999,-99.99,,,-99.99,,2013-02-10 04:52:00,
2013-02-10 01:01:00,78.0,-99.9,30.01,East,90,13.0,16.0,-999,-99.99,,,-99.99,,2013-02-10 05:01:00,
2013-02-10 01:11:00,78.0,-99.9,30.01,East,90,13.0,16.0,-999,-99.99,,,-99.99,,2013-02-10 05:11:00,
2013-02-10 01:23:00,78.0,-99.9,30.01,East,90,13.0,16.0,-999,-99.99,,,-99.99,,2013-02-10 05:23:00,
2013-02-10 01:42:00,78.0,-99.9,30.01,East,90,11.0,16.0,-999,-99.99,,,-99.99,,2013-02-10 05:42:00,
2013-02-10 01:52:00,78.0,-99.9,30.01,East,90,11.0,16.0,-999,-99.99,,,-99.99,,2013-02-10 05:52:00,
2013-02-10 02:02:00,78.0,-99.9,30.01,East,80,11.0,16.0,-999,-99.99,,,-99.99,,2013-02-10 06:02:00,
2013-02-10 02:11:00,78.0,-99.9,30.01,East,80,11.0,16.0,-999,-99.99,,,-99.99,,2013-02-10 06:11:00,
2013-02-10 02:22:00,78.0,-99.9,30.01,East,80,11.0,16.0,-999,-99.99,,,-99.99,,2013-02-10 06:22:00,
2013-02-10 02:32:00,78.0,-99.9,29.99,East,80,11.0,13.0,-999,-99.99,,,-99.99,,2013-02-10 06:32:00,
2013-02-10 02:42:00,78.0,-99.9,29.99,East,80,11.0,13.0,-999,-99.99,,,-99.99,,2013-02-10 06:42:00,
2013-02-10 02:52:00,78.0,-99.9,29.99,East,80,11.0,13.0,-999,-99.99,,,-99.99,,2013-02-10 06:52:00,
2013-02-10 03:01:00,78.0,-99.9,29.99,East,80,11.0,16.0,-999,-99.99,,,-99.99,,2013-02-10 07:01:00,
2013-02-10 03:11:00,78.0,-99.9,29.99,East,80,11.0,16.0,-999,-99.99,,,-99.99,,2013-02-10 07:11:00,
2013-02-10 03:21:00,78.0,-99.9,29.99,East,80,11.0,16.0,-999,-99.99,,,-99.99,,2013-02-10 07:21:00,
2013-02-10 03:32:00,78.0,-99.9,29.97,East,80,11.0,13.0,-999,-99.99,,,-99.99,,2013-02-10 07:32:00,
2013-02-10 03:42:00,78.0,-99.9,29.97,East,80,11.0,13.0,-999,-99.99,,,-99.99,,2013-02-10 07:42:00,
2013-02-10 03:52:00,78.0,-99.9,29.97,East,80,11.0,13.0,-999,-99.99,,,-99.99,,2013-02-10 07:52:00,
2013-02-10 04:01:00,76.0,-99.9,29.97,South,180,7.0,7.0,-999,-99.99,,,-99.99,,2013-02-10 08:01:00,
2013-02-10 04:11:00,76.0,-99.9,29.97,South,180,7.0,7.0,-999,-99.99,,,-99.99,,2013-02-10 08:11:00,
2013-02-10 04:21:00,76.0,-99.9,29.97,South,180,7.0,7.0,-999,-99.99,,,-99.99,,2013-02-10 08:21:00,
2013-02-10 04:32:00,75.0,-99.9,29.97,South,180,7.0,7.0,-999,-99.99,,,-99.99,,2013-02-10 08:32:00,
2013-02-10 04:43:00,75.0,-99.9,29.97,South,180,7.0,7.0,-999,-99.99,,,-99.99,,2013-02-10 08:43:00,
2013-02-10 04:52:00,75.0,-99.9,29.97,South,180,7.0,7.0,-999,-99.99,,,-99.99,,2013-02-10 08:52:00,
2013-02-10 05:02:00,75.0,-99.9,29.98,South,180,4.0,4.0,-999,-99.99,,,-99.99,,2013-02-10 09:02:00,
2013-02-10 05:11:00,75.0,-99.9,29.98,South,180,4.0,4.0,-999,-99.99,,,-99.99,,2013-02-10 09:11:00,
2013-02-10 05:21:00,75.0,-99.9,29.98,South,180,4.0,4.0,-999,-99.99,,,-99.99,,2013-02-10 09:21:00,
2013-02-10 05:32:00,75.0,-99.9,29.98,South,170,2.0,4.0,-999,-99.99,,,-99.99,,2013-02-10 09:32:00,
2013-02-10 05:42:00,75.0,-99.9,29.98,South,170,2.0,4.0,-999,-99.99,,,-99.99,,2013-02-10 09:42:00,
2013-02-10 05:52:00,75.0,-99.9,29.98,South,170,2.0,4.0,-999,-99.99,,,-99.99,,2013-02-10 09:52:00,
2013-02-10 06:01:00,75.0,-99.9,29.99,South,180,4.0,4.0,-999,-99.99,,,-99.99,,2013-02-10 10:01:00,
2013-02-10 06:11:00,75.0,-99.9,29.99,South,180,4.0,4.0,-999,-99.99,,,-99.99,,2013-02-10 10:11:00,
2013-02-10 06:21:00,75.0,-99.9,29.99,South,180,4.0,4.0,-999,-99.99,,,-99.99,,2013-02-10 10:21:00,
2013-02-10 06:32:00,75.0,-99.9,30.00,South,180,4.0,7.0,-999,-99.99,,,-99.99,,2013-02-10 10:32:00,
2013-02-10 06:42:00,75.0,-99.9,30.00,South,180,4.0,7.0,-999,-99.99,,,-99.99,,2013-02-10 10:42:00,
2013-02-10 06:52:00,75.0,-99.9,30.00,South,180,4.0,7.0,-999,-99.99,,,-99.99,,2013-02-10 10:52:00,
2013-02-10 07:01:00,75.0,-99.9,30.00,South,170,2.0,4.0,-999,-99.99,,,-99.99,,2013-02-10 11:01:00,
2013-02-10 07:11:00,75.0,-99.9,30.00,South,170,2.0,4.0,-999,-99.99,,,-99.99,,2013-02-10 11:11:00,
2013-02-10 07:22:00,75.0,-99.9,30.00,South,170,2.0,4.0,-999,-99.99,,,-99.99,,2013-02-10 11:22:00,
2013-02-10 07:32:00,75.0,-99.9,30.01,South,190,4.0,7.0,-999,-99.99,,,-99.99,,2013-02-10 11:32:00,
2013-02-10 07:42:00,75.0,-99.9,30.01,South,190,4.0,7.0,-999,-99.99,,,-99.99,,2013-02-10 11:42:00,
2013-02-10 07:52:00,75.0,-99.9,30.01,South,190,4.0,7.0,-999,-99.99,,,-99.99,,2013-02-10 11:52:00,
2013-02-10 08:02:00,76.0,-99.9,30.02,South,190,2.0,4.0,-999,-99.99,,,-99.99,,2013-02-10 12:02:00,
2013-02-10 08:12:00,76.0,-99.9,30.02,South,190,2.0,4.0,-999,-99.99,,,-99.99,,2013-02-10 12:12:00,
2013-02-10 08:22:00,76.0,-99.9,30.02,South,190,2.0,4.0,-999,-99.99,,,-99.99,,2013-02-10 12:22:00,
2013-02-10 08:32:00,76.0,-99.9,30.03,South,180,4.0,7.0,-999,-99.99,,,-99.99,,2013-02-10 12:32:00,
2013-02-10 08:42:00,76.0,-99.9,30.03,South,180,4.0,7.0,-999,-99.99,,,-99.99,,2013-02-10 12:42:00,
2013-02-10 08:52:00,76.0,-99.9,30.03,South,180,4.0,7.0,-999,-99.99,,,-99.99,,2013-02-10 12:52:00,
2013-02-10 09:02:00,77.0,-99.9,30.05,SSE,160,4.0,7.0,-999,-99.99,,,-99.99,,2013-02-10 13:02:00,
2013-02-10 09:12:00,77.0,-99.9,30.05,SSE,160,4.0,7.0,-999,-99.99,,,-99.99,,2013-02-10 13:12:00,
2013-02-10 09:21:00,77.0,-99.9,30.05,SSE,160,4.0,7.0,-999,-99.99,,,-99.99,,2013-02-10 13:21:00,
2013-02-10 09:32:00,78.0,-99.9,30.06,ESE,110,4.0,7.0,-999,-99.99,,,-99.99,,2013-02-10 13:32:00,
2013-02-10 09:42:00,78.0,-99.9,30.06,ESE,110,4.0,7.0,-999,-99.99,,,-99.99,,2013-02-10 13:42:00,
2013-02-10 09:52:00,78.0,-99.9,30.06,ESE,110,4.0,7.0,-999,-99.99,,,-99.99,,2013-02-10 13:52:00,
2013-02-10 10:02:00,78.0,-99.9,30.07,ENE,60,11.0,13.0,-999,-99.99,,,-99.99,,2013-02-10 14:02:00,
2013-02-10 10:11:00,78.0,-99.9,30.07,ENE,60,11.0,13.0,-999,-99.99,,,-99.99,,2013-02-10 14:11:00,
2013-02-10 10:22:00,78.0,-99.9,30.07,ENE,60,11.0,13.0,-999,-99.99,,,-99.99,,2013-02-10 14:22:00,
2013-02-10 10:32:00,79.0,-99.9,30.08,ENE,60,13.0,16.0,-999,-99.99,,,-99.99,,2013-02-10 14:32:00,
2013-02-10 10:42:00,79.0,-99.9,30.08,ENE,60,13.0,16.0,-999,-99.99,,,-99.99,,2013-02-10 14:42:00,
2013-02-10 10:52:00,79.0,-99.9,30.08,ENE,60,13.0,16.0,-999,-99.99,,,-99.99,,2013-02-10 14:52:00,
2013-02-10 11:02:00,79.0,-99.9,30.08,ENE,70,11.0,16.0,-999,-99.99,,,-99.99,,2013-02-10 15:02:00,
2013-02-10 11:12:00,79.0,-99.9,30.08,ENE,70,11.0,16.0,-999,-99.99,,,-99.99,,2013-02-10 15:12:00,
2013-02-10 11:22:00,79.0,-99.9,30.08,ENE,70,11.0,16.0,-999,-99.99,,,-99.99,,2013-02-10 15:22:00,
2013-02-10 11:32:00,79.0,-99.9,30.07,ENE,70,11.0,16.0,-999,-99.99,,,-99.99,,2013-02-10 15:32:00,
2013-02-10 11:42:00,79.0,-99.9,30.07,ENE,70,11.0,16.0,-999,-99.99,,,-99.99,,2013-02-10 15:42:00,
2013-02-10 11:52:00,79.0,-99.9,30.07,ENE,70,11.0,16.0,-999,-99.99,,,-99.99,,2013-02-10 15:52:00,
2013-02-10 12:02:00,79.0,-99.9,30.07,ENE,60,11.0,13.0,-999,-99.99,,,-99.99,,2013-02-10 16:02:00,
2013-02-10 12:12:00,79.0,-99.9,30.07,ENE,60,11.0,13.0,-999,-99.99,,,-99.99,,2013-02-10 16:12:00,
2013-02-10 12:22:00,79.0,-99.9,30.07,ENE,60,11.0,13.0,-999,-99.99,,,-99.99,,2013-02-10 16:22:00,
2013-02-10 12:32:00,79.0,-99.9,30.06,ENE,60,11.0,13.0,-999,-99.99,,,-99.99,,2013-02-10 16:32:00,
2013-02-10 12:42:00,79.0,-99.9,30.06,ENE,60,11.0,13.0,-999,-99.99,,,-99.99,,2013-02-10 16:42:00,
2013-02-10 12:52:00,79.0,-99.9,30.06,ENE,60,11.0,13.0,-999,-99.99,,,-99.99,,2013-02-10 16:52:00,
2013-02-10 13:02:00,79.0,-99.9,30.06,NE,50,11.0,13.0,-999,-99.99,,,-99.99,,2013-02-10 17:02:00,
2013-02-10 13:12:00,79.0,-99.9,30.06,NE,50,11.0,13.0,-999,-99.99,,,-99.99,,2013-02-10 17:12:00,
2013-02-10 13:22:00,79.0,-99.9,30.06,NE,50,11.0,13.0,-999,-99.99,,,-99.99,,2013-02-10 17:22:00,
2013-02-10 13:32:00,79.0,-99.9,30.05,ENE,60,11.0,16.0,-999,-99.99,,,-99.99,,2013-02-10 17:32:00,
2013-02-10 13:42:00,79.0,-99.9,30.05,ENE,60,11.0,16.0,-999,-99.99,,,-99.99,,2013-02-10 17:42:00,
2013-02-10 13:53:00,79.0,-99.9,30.05,ENE,60,11.0,16.0,-999,-99.99,,,-99.99,,2013-02-10 17:53:00,
2013-02-10 14:02:00,79.0,-99.9,30.04,NE,50,11.0,16.0,-999,-99.99,,,-99.99,,2013-02-10 18:02:00,
2013-02-10 14:12:00,79.0,-99.9,30.04,NE,50,11.0,16.0,-999,-99.99,,,-99.99,,2013-02-10 18:12:00,
2013-02-10 14:22:00,79.0,-99.9,30.04,NE,50,11.0,16.0,-999,-99.99,,,-99.99,,2013-02-10 18:22:00,
2013-02-10 14:32:00,79.0,-99.9,30.03,ENE,60,11.0,16.0,-999,-99.99,,,-99.99,,2013-02-10 18:32:00,
2013-02-10 14:42:00,79.0,-99.9,30.03,ENE,60,11.0,16.0,-999,-99.99,,,-99.99,,2013-02-10 18:42:00,
2013-02-10 14:52:00,79.0,-99.9,30.03,ENE,60,11.0,16.0,-999,-99.99,,,-99.99,,2013-02-10 18:52:00,
2013-02-10 15:02:00,79.0,-99.9,30.02,ENE,60,11.0,13.0,-999,-99.99,,,-99.99,,2013-02-10 19:02:00,
2013-02-10 15:12:00,79.0,-99.9,30.02,ENE,60,11.0,13.0,-999,-99.99,,,-99.99,,2013-02-10 19:12:00,
2013-02-10 15:22:00,79.0,-99.9,30.02,ENE,60,11.0,13.0,-999,-99.99,,,-99.99,,2013-02-10 19:22:00,
2013-02-10 15:30:00,79.0,-99.9,30.01,ENE,60,11.0,13.0,-999,-99.99,,,-99.99,,2013-02-10 19:30:00,
2013-02-10 15:32:00,79.0,-99.9,30.01,ENE,60,11.0,16.0,-999,-99.99,,,-99.99,,2013-02-10 19:32:00,
2013-02-10 15:43:00,79.0,-99.9,30.01,ENE,60,11.0,16.0,-999,-99.99,,,-99.99,,2013-02-10 19:43:00,
2013-02-10 15:52:00,79.0,-99.9,30.01,ENE,60,11.0,16.0,-999,-99.99,,,-99.99,,2013-02-10 19:52:00,
2013-02-10 16:02:00,79.0,-99.9,30.01,ENE,60,11.0,13.0,-999,-99.99,,,-99.99,,2013-02-10 20:02:00,
2013-02-10 16:12:00,79.0,-99.9,30.01,ENE,60,11.0,13.0,-999,-99.99,,,-99.99,,2013-02-10 20:12:00,
2013-02-10 16:22:00,79.0,-99.9,30.01,ENE,60,11.0,13.0,-999,-99.99,,,-99.99,,2013-02-10 20:22:00,
2013-02-10 17:03:00,79.0,-99.9,30.01,NE,50,11.0,13.0,-999,-99.99,,,-99.99,,2013-02-10 21:03:00,
2013-02-10 17:12:00,79.0,-99.9,30.01,NE,50,11.0,13.0,-999,-99.99,,,-99.99,,2013-02-10 21:12:00,
2013-02-10 17:22:00,79.0,-99.9,30.01,NE,50,11.0,13.0,-999,-99.99,,,-99.99,,2013-02-10 21:22:00,
2013-02-10 17:32:00,79.0,-99.9,30.01,NE,50,13.0,16.0,-999,-99.99,,,-99.99,,2013-02-10 21:32:00,
2013-02-10 17:42:00,79.0,-99.9,30.01,NE,50,13.0,16.0,-999,-99.99,,,-99.99,,2013-02-10 21:42:00,
2013-02-10 17:52:00,79.0,-99.9,30.01,NE,50,13.0,16.0,-999,-99.99,,,-99.99,,2013-02-10 21:52:00,
2013-02-10 18:02:00,79.0,-99.9,30.02,ENE,60,13.0,16.0,-999,-99.99,,,-99.99,,2013-02-10 22:02:00,
2013-02-10 18:12:00,79.0,-99.9,30.02,ENE,60,13.0,16.0,-999,-99.99,,,-99.99,,2013-02-10 22:12:00,
2013-02-10 18:22:00,79.0,-99.9,30.02,ENE,60,13.0,16.0,-999,-99.99,,,-99.99,,2013-02-10 22:22:00,
2013-02-10 18:32:00,79.0,-99.9,30.02,NE,50,13.0,16.0,-999,-99.99,,,-99.99,,2013-02-10 22:32:00,
2013-02-10 18:42:00,79.0,-99.9,30.02,NE,50,13.0,16.0,-999,-99.99,,,-99.99,,2013-02-10 22:42:00,
2013-02-10 18:53:00,79.0,-99.9,30.02,NE,50,13.0,16.0,-999,-99.99,,,-99.99,,2013-02-10 22:53:00,
2013-02-10 19:02:00,79.0,-99.9,30.02,ENE,60,13.0,18.0,-999,-99.99,,,-99.99,,2013-02-10 23:02:00,
2013-02-10 19:12:00,79.0,-99.9,30.02,ENE,60,13.0,18.0,-999,-99.99,,,-99.99,,2013-02-10 23:12:00,
2013-02-10 19:22:00,79.0,-99.9,30.02,ENE,60,13.0,18.0,-999,-99.99,,,-99.99,,2013-02-10 23:22:00,
2013-02-10 19:32:00,78.0,-99.9,30.03,NE,50,16.0,20.0,-999,-99.99,,,-99.99,,2013-02-10 23:32:00,
2013-02-10 19:42:00,78.0,-99.9,30.03,NE,50,16.0,20.0,-999,-99.99,,,-99.99,,2013-02-10 23:42:00,
2013-02-10 19:52:00,78.0,-99.9,30.03,NE,50,16.0,20.0,-999,-99.99,,,-99.99,,2013-02-10 23:52:00,
2013-02-10 20:02:00,78.0,-99.9,30.03,NE,50,16.0,18.0,-999,-99.99,,,-99.99,,2013-02-11 00:02:00,
2013-02-10 20:11:00,78.0,-99.9,30.03,NE,50,16.0,18.0,-999,-99.99,,,-99.99,,2013-02-11 00:11:00,
2013-02-10 20:22:00,78.0,-99.9,30.03,NE,50,16.0,18.0,-999,-99.99,,,-99.99,,2013-02-11 00:22:00,
2013-02-10 20:32:00,78.0,-99.9,30.05,ENE,60,16.0,20.0,-999,-99.99,,,-99.99,,2013-02-11 00:32:00,
2013-02-10 20:42:00,78.0,-99.9,30.05,ENE,60,16.0,20.0,-999,-99.99,,,-99.99,,2013-02-11 00:42:00,
2013-02-10 20:52:00,78.0,-99.9,30.05,ENE,60,16.0,20.0,-999,-99.99,,,-99.99,,2013-02-11 00:52:00,
2013-02-10 21:02:00,78.0,-99.9,30.05,NE,50,16.0,20.0,-999,-99.99,,,-99.99,,2013-02-11 01:02:00,
2013-02-10 21:11:00,78.0,-99.9,30.05,NE,50,16.0,20.0,-999,-99.99,,,-99.99,,2013-02-11 01:11:00,
2013-02-10 21:22:00,78.0,-99.9,30.05,NE,50,16.0,20.0,-999,-99.99,,,-99.99,,2013-02-11 01:22:00,
2013-02-10 21:32:00,79.0,-99.9,30.06,NE,50,18.0,20.0,-999,-99.99,,,-99.99,,2013-02-11 01:32:00,
2013-02-10 21:42:00,79.0,-99.9,30.06,NE,50,18.0,20.0,-999,-99.99,,,-99.99,,2013-02-11 01:42:00,
2013-02-10 21:52:00,79.0,-99.9,30.06,NE,50,18.0,20.0,-999,-99.99,,,-99.99,,2013-02-11 01:52:00,
2013-02-10 22:01:00,78.0,-99.9,30.06,NE,50,18.0,22.0,-999,-99.99,,,-99.99,,2013-02-11 02:01:00,
2013-02-10 22:11:00,78.0,-99.9,30.06,NE,50,18.0,22.0,-999,-99.99,,,-99.99,,2013-02-11 02:11:00,
2013-02-10 22:21:00,78.0,-99.9,30.06,NE,50,18.0,22.0,-999,-99.99,,,-99.99,,2013-02-11 02:21:00,
2013-02-10 22:32:00,78.0,-99.9,30.07,ENE,60,18.0,22.0,-999,-99.99,,,-99.99,,2013-02-11 02:32:00,
2013-02-10 22:42:00,78.0,-99.9,30.07,ENE,60,18.0,22.0,-999,-99.99,,,-99.99,,2013-02-11 02:42:00,
2013-02-10 22:52:00,78.0,-99.9,30.07,ENE,60,18.0,22.0,-999,-99.99,,,-99.99,,2013-02-11 02:52:00,
2013-02-10 23:02:00,77.0,-99.9,30.07,NE,40,18.0,22.0,-999,-99.99,,,-99.99,,2013-02-11 03:02:00,
2013-02-10 23:11:00,77.0,-99.9,30.07,NE,40,18.0,22.0,-999,-99.99,,,-99.99,,2013-02-11 03:11:00,
2013-02-10 23:22:00,77.0,-99.9,30.07,NE,40,18.0,22.0,-999,-99.99,,,-99.99,,2013-02-11 03:22:00,
2013-02-10 23:30:00,78.0,-99.9,30.07,NE,50,18.0,22.0,-999,-99.99,,,-99.99,,2013-02-11 03:30:00,
2013-02-10 23:32:00,78.0,-99.9,30.07,NE,50,13.0,18.0,-999,-99.99,,,-99.99,,2013-02-11 03:32:00,
2013-02-10 23:42:00,78.0,-99.9,30.07,NE,50,13.0,18.0,-999,-99.99,,,-99.99,,2013-02-11 03:42:00,
2013-02-10 23:52:00,78.0,-99.9,30.07,NE,50,13.0,18.0,-999,-99.99,,,-99.99,,2013-02-11 03:52:00,